Location: Le Petit-Vavre
(46.5081°N, 1.5239°E)
Time: 19:37:32
(UTC+00:00)

IRS-1C Rocket - Pass Details

Date: 03 March 2021
Orbit: 800 x 806 km, 99.0° (Epoch: 20 April)

Event Time Altitude Azimuth Distance (km) Brightness Sun altitude
Rises 18:04:43 0° 157° (SSE) 3,303 7.1 -4.6°
Reaches altitude 10° 18:07:02 10° 155° (SSE) 2,377 6.3 -5.0°
Maximum altitude 18:12:16 71° 72° (ENE) 852 4.1 -5.9°
Drops below altitude 10° 18:17:32 10° 349° (N) 2,397 6.7 -6.8°
Sets 18:19:53 0° 348° (NNW) 3,333 7.4 -7.2°
